TimeCEST,TemperatureF,Dew PointF,Humidity,Sea Level PressureIn,VisibilityMPH,Wind Direction,Wind SpeedMPH,Gust SpeedMPH,PrecipitationIn,Events,Conditions,WindDirDegrees,DateUTC
1:55 AM,59.0,51.8,77,29.86,6.2,ENE,16.1,31.1,N/A,,Partly Cloudy,60,2012-10-12 23:55:00
2:00 AM,59,51,67,29.88,6,ENE,16.1,,,,Partly Cloudy,60,2012-10-13 00:00:00
2:55 AM,60.8,51.8,72,29.86,6.2,ENE,16.1,32.2,N/A,,Partly Cloudy,70,2012-10-13 00:55:00
3:55 AM,60.8,50.0,68,29.86,-9999.0,ENE,16.1,32.2,N/A,,Clear,70,2012-10-13 01:55:00
4:55 AM,62.6,50.0,63,29.89,6.2,ENE,12.7,29.9,N/A,,Partly Cloudy,70,2012-10-13 02:55:00
6:55 AM,62.6,50.0,63,29.89,6.2,NE,16.1,36.8,N/A,,Scattered Clouds,40,2012-10-13 04:55:00
7:55 AM,62.6,50.0,63,29.89,6.2,NE,15.0,32.2,N/A,,Partly Cloudy,50,2012-10-13 05:55:00
8:00 AM,63,49,51,29.90,6,NE,15.0,,,Rain,Light Rain Showers,50,2012-10-13 06:00:00
8:55 AM,62.6,48.2,59,29.89,-9999.0,ENE,16.1,38.0,N/A,,Clear,60,2012-10-13 06:55:00
10:55 AM,64.4,50.0,59,29.92,-9999.0,ENE,18.4,32.2,N/A,,Clear,60,2012-10-13 08:55:00
11:55 AM,64.4,48.2,56,29.92,6.2,ENE,13.8,28.8,N/A,,Mostly Cloudy,60,2012-10-13 09:55:00
12:55 PM,60.8,50.0,68,29.92,6.2,ENE,16.1,34.5,N/A,,Scattered Clouds,60,2012-10-13 10:55:00
1:55 PM,62.6,50.0,63,29.89,6.2,ENE,12.7,29.9,N/A,,Partly Cloudy,60,2012-10-13 11:55:00
2:00 PM,63,50,53,29.91,12,ENE,12.7,,,,Partly Cloudy,60,2012-10-13 12:00:00
2:55 PM,62.6,48.2,59,29.89,6.2,ENE,16.1,32.2,N/A,,Scattered Clouds,60,2012-10-13 12:55:00
3:55 PM,62.6,50.0,63,29.86,6.2,NE,11.5,-,N/A,,Scattered Clouds,40,2012-10-13 13:55:00
4:55 PM,60.8,48.2,63,29.86,6.2,NE,16.1,38.0,N/A,,Scattered Clouds,50,2012-10-13 14:55:00
5:55 PM,60.8,46.4,59,29.86,6.2,ENE,15.0,34.5,N/A,,Scattered Clouds,60,2012-10-13 15:55:00
7:55 PM,55.4,50.0,82,29.83,6.2,ENE,16.1,32.2,N/A,Rain,Rain,70,2012-10-13 17:55:00
8:55 PM,57.2,50.0,77,29.86,6.2,ENE,12.7,28.8,N/A,,Scattered Clouds,70,2012-10-13 18:55:00
9:55 PM,55.4,51.8,88,29.83,6.2,East,10.4,24.2,N/A,Rain,Rain,90,2012-10-13 19:55:00
10:55 PM,57.2,50.0,77,29.83,6.2,North,4.6,-,N/A,,Scattered Clouds,350,2012-10-13 20:55:00
11:55 PM,57.2,50.0,77,29.80,6.2,ENE,11.5,25.3,N/A,,Scattered Clouds,70,2012-10-13 21:55:00